Location: Titusville
(28.6120°N, 80.8080°W)
Time: 01:53:30
(UTC-05:00)

Hubble Space Telescope - Visible Passes

Search period start: 18 December 2017 00:00
Search period end: 28 December 2017 00:00
Orbit: 537 x 541 km, 28.5° (Epoch: 17 December)

Date Brightness Start Highest point End Pass type
(mag) Time Alt. Az. Time Alt. Az. Time Alt. Az.
18 Dec 2.0 18:03:01 10° W 18:06:56 41° SSW 18:10:50 10° SE visible
18 Dec 3.5 19:45:53 10° SW 19:47:43 13° SSW 19:48:33 12° SSW visible
19 Dec 2.4 17:52:54 10° W 17:56:39 33° SSW 18:00:24 10° SE visible
